English version Home page |
Updated on June 21, 2008 |
|
軌道要素T 2008 June 19.509 TT MPC q 0.44795 (2000.0) P Q Peri. 93.393 +0.021567 -0.331510 Node 289.248 -0.332270 +0.887421 e 1.0 Incl. 87.502 +0.942938 +0.320290 From 22 observations 2008 May 10-25.
|
星図
|
光度変化m1 = 16.0 + 5 logΔ + 10.0 log r
|
軌道要素はM.P.E.C. 2008-L32に掲載されたものです。
|